Location: Caumont
(43.8974°N, 4.9446°E)
Time: 17:29:03
(UTC+00:00)

Daily predictions for brighter satellites

Satellite Brightness Start Highest point End
(mag) Time Altitude Azimuth Time Altitude Azimuth Time Altitude Azimuth
Helios 1A Rocket 4.3 17:02:05 10° ESE 17:05:03 20° ENE 17:08:02 10° NNE
Cosmos 2058 Rocket 4.4 17:03:41 10° SE 17:06:55 20° E 17:10:10 10° NE
CORIOLIS 4.1 17:02:13 10° SSE 17:07:32 76° ENE 17:12:54 10° N
Cosmos 1953 Rocket 4.4 17:03:43 10° NNE 17:07:36 30° ENE 17:11:29 10° SE
Cosmos 1340 4.4 17:05:44 10° NNE 17:07:50 14° ENE 17:09:56 10° ESE
Cosmos 1939 Rocket 3.8 17:04:29 10° SE 17:07:52 27° ENE 17:11:13 10° N
ERS-2 2.1 17:05:04 10° NNE 17:08:41 65° ESE 17:12:18 10° S
FALCON 9 DEB 4.2 17:06:44 10° SSW 17:09:29 27° SE 17:12:15 10° ENE
Cosmos 1328 3.7 17:11:46 10° N 17:15:43 82° E 17:19:40 10° S
SAR-Lupe-4 4.0 17:13:17 10° NNE 17:16:43 41° E 17:20:06 10° S
SMAP 3.4 17:13:02 10° S 17:17:40 73° WSW 17:22:20 10° NNW
FALCON 9 DEB 4.0 17:15:53 10° SSW 17:18:48 31° SE 17:21:32 11° ENE
Cosmos 1331 Rocket 4.0 17:15:26 10° S 17:20:29 59° ESE 17:25:34 10° NNE
Cosmos 2219 4.0 17:17:19 10° N 17:22:24 31° NE 17:27:29 10° ESE
[s.n.71892] 4.2 17:23:48 10° WNW 17:26:00 30° SW 17:28:11 10° SSE
[s.n.71848] 4.2 17:23:50 10° WNW 17:26:02 30° SW 17:28:13 10° SSE
[s.n.71926] 4.2 17:23:51 10° WNW 17:26:02 30° SW 17:28:14 10° SSE
[s.n.71924] 4.2 17:23:51 10° WNW 17:26:03 30° SW 17:28:14 10° SSE
[s.n.71922] 4.2 17:23:52 10° WNW 17:26:03 30° SW 17:28:15 10° SSE
[s.n.71894] 4.2 17:23:53 10° WNW 17:26:04 30° SW 17:28:16 10° SSE
[s.n.71865] 4.2 17:23:53 10° WNW 17:26:04 30° SW 17:28:16 10° SSE
[s.n.71923] 4.2 17:23:53 10° WNW 17:26:04 30° SW 17:28:16 10° SSE
[s.n.71921] 4.2 17:23:53 10° WNW 17:26:04 30° SW 17:28:16 10° SSE
[s.n.71925] 4.2 17:23:52 10° WNW 17:26:04 30° SW 17:28:15 10° SSE
[s.n.71928] 4.1 17:23:52 10° WNW 17:26:04 30° SW 17:28:15 10° SSE
[s.n.71908] 4.2 17:23:54 10° WNW 17:26:05 30° SW 17:28:16 10° SSE
[s.n.71915] 4.2 17:23:54 10° WNW 17:26:05 30° SW 17:28:16 10° SSE
[s.n.71920] 4.2 17:23:54 10° WNW 17:26:05 30° SW 17:28:17 10° SSE
[s.n.71910] 4.2 17:23:54 10° WNW 17:26:05 30° SW 17:28:17 10° SSE
[s.n.71883] 4.2 17:23:54 10° WNW 17:26:05 30° SW 17:28:17 10° SSE
[s.n.71905] 4.2 17:23:54 10° WNW 17:26:06 30° SW 17:28:17 10° SSE
[s.n.71911] 4.2 17:23:54 10° WNW 17:26:06 30° SW 17:28:17 10° SSE
[s.n.71847] 4.2 17:23:54 10° WNW 17:26:06 30° SW 17:28:17 10° SSE
[s.n.71872] 4.2 17:23:55 10° WNW 17:26:07 30° SW 17:28:18 10° SSE
[s.n.71931] 4.2 17:23:55 10° WNW 17:26:07 30° SW 17:28:18 10° SSE
[s.n.71898] 4.2 17:23:55 10° WNW 17:26:07 30° SW 17:28:18 10° SSE
[s.n.71941] 4.2 17:23:55 10° WNW 17:26:07 30° SW 17:28:19 10° SSE
[s.n.71834] 4.2 17:23:55 10° WNW 17:26:07 30° SW 17:28:19 10° SSE
[s.n.71942] 4.2 17:23:56 10° WNW 17:26:07 30° SW 17:28:19 10° SSE
[s.n.71933] 4.2 17:23:57 10° WNW 17:26:08 30° SW 17:28:20 10° SSE
[s.n.71934] 4.2 17:23:57 10° WNW 17:26:08 30° SW 17:28:20 10° SSE
[s.n.71930] 4.2 17:23:57 10° WNW 17:26:08 30° SW 17:28:20 10° SSE
[s.n.71835] 4.2 17:23:57 10° WNW 17:26:08 30° SW 17:28:20 10° SSE
[s.n.71944] 4.2 17:23:57 10° WNW 17:26:09 30° SW 17:28:20 10° SSE
[s.n.71798] 4.2 17:23:57 10° WNW 17:26:09 30° SW 17:28:20 10° SSE
[s.n.71950] 4.2 17:23:57 10° WNW 17:26:09 30° SW 17:28:21 10° SSE
[s.n.71832] 4.2 17:23:57 10° WNW 17:26:09 30° SW 17:28:21 10° SSE
[s.n.71851] 4.2 17:23:58 10° WNW 17:26:09 30° SW 17:28:21 10° SSE
[s.n.71893] 4.2 17:23:58 10° WNW 17:26:09 30° SW 17:28:21 10° SSE
[s.n.71882] 4.2 17:23:58 10° WNW 17:26:10 30° SW 17:28:21 10° SSE
[s.n.71947] 4.2 17:23:58 10° WNW 17:26:10 30° SW 17:28:21 10° SSE
[s.n.71948] 4.2 17:23:58 10° WNW 17:26:10 30° SW 17:28:22 10° SSE
[s.n.71929] 4.2 17:23:58 10° WNW 17:26:10 30° SW 17:28:22 10° SSE
[s.n.71943] 4.2 17:23:59 10° WNW 17:26:10 30° SW 17:28:22 10° SSE
[s.n.71899] 4.2 17:23:59 10° WNW 17:26:11 30° SW 17:28:22 10° SSE
[s.n.71903] 4.2 17:23:59 10° WNW 17:26:11 30° SW 17:28:22 10° SSE
[s.n.71897] 4.2 17:23:59 10° WNW 17:26:11 30° SW 17:28:22 10° SSE
[s.n.71902] 4.2 17:23:59 10° WNW 17:26:11 30° SW 17:28:23 10° SSE
[s.n.71932] 4.2 17:24:00 10° WNW 17:26:11 30° SW 17:28:23 10° SSE
[s.n.71833] 4.2 17:24:00 10° WNW 17:26:11 30° SW 17:28:23 10° SSE
[s.n.71896] 4.2 17:24:00 10° WNW 17:26:12 30° SW 17:28:23 10° SSE
[s.n.71918] 4.2 17:24:00 10° WNW 17:26:12 30° SW 17:28:23 10° SSE
[s.n.71936] 4.2 17:24:00 10° WNW 17:26:12 30° SW 17:28:24 10° SSE
[s.n.71917] 4.2 17:24:00 10° WNW 17:26:12 30° SW 17:28:24 10° SSE
[s.n.71935] 4.2 17:24:00 10° WNW 17:26:13 30° SW 17:28:24 10° SSE
[s.n.71901] 4.2 17:24:01 10° WNW 17:26:13 30° SW 17:28:24 10° SSE
[s.n.71919] 4.2 17:24:02 10° WNW 17:26:13 30° SW 17:28:25 10° SSE
[s.n.71939] 4.2 17:24:01 10° WNW 17:26:13 30° SW 17:28:25 10° SSE
[s.n.71946] 4.2 17:24:01 10° WNW 17:26:13 30° SW 17:28:25 10° SSE
[s.n.71949] 4.2 17:24:02 10° WNW 17:26:14 30° SW 17:28:26 10° SSE
[s.n.71916] 4.2 17:24:03 10° WNW 17:26:14 30° SW 17:28:26 10° SSE
[s.n.71937] 4.2 17:24:03 10° WNW 17:26:14 30° SW 17:28:26 10° SSE
[s.n.71906] 4.2 17:24:03 10° WNW 17:26:15 30° SW 17:28:27 10° SSE
[s.n.71945] 4.2 17:24:04 10° WNW 17:26:16 30° SW 17:28:27 10° SSE
Timation 2 Rocket 4.3 17:20:45 10° NNW 17:27:11 53° ENE 17:33:48 10° SE
CZ-4 R/B 2.3 17:24:30 10° ESE 17:27:41 25° ENE 17:30:52 10° NNE
Aureole 3 3.7 17:29:32 10° SSE 17:32:24 27° E 17:35:02 10° NNE
FALCON 9 DEB 3.4 17:29:23 10° SSW 17:32:28 44° SE 17:34:45 16° ENE
COSMO-SKYMED 1 2.7 17:28:43 10° NNE 17:32:58 50° E 17:37:11 10° S
SAR-Lupe-1 4.0 17:30:49 10° NNE 17:34:24 64° ESE 17:37:57 10° S
SeaSat 1 3.9 17:32:11 13° E 17:34:50 19° NE 17:38:16 10° N
Cosmos 1400 Rocket 3.5 17:31:37 10° SSE 17:35:22 35° E 17:39:06 10° NNE
Okean O Rocket 3.0 17:33:43 10° S 17:37:52 43° W 17:42:03 10° NNW
H-2A R/B 4.2 17:34:50 10° N 17:38:20 26° WNW 17:41:45 10° WSW
USA 215 4.3 17:33:06 11° ENE 17:38:21 30° N 17:43:52 10° NW
ATLAS 2AS CENTAUR R/B 4.5 17:34:34 10° NNW 17:39:48 19° NNE 17:44:29 11° NE
CZ-2C R/B 3.8 17:37:00 10° SE 17:42:20 39° ENE 17:47:34 10° N
Cosmos 968 Rocket 4.3 17:39:56 10° N 17:44:28 29° ENE 17:47:57 15° ESE
ATLAS 5 CENTAUR R/B 4.2 17:43:20 10° NW 17:45:20 13° NNW 17:47:27 10° N
Cosmos 1825 Rocket 3.8 17:41:20 10° NNW 17:45:47 73° W 17:50:10 10° S
USA 305 4.4 17:43:13 10° NW 17:46:44 24° NNE 17:49:00 16° NE
COSMOS 2487 4.4 17:43:37 10° NW 17:46:44 32° WSW 17:49:49 10° SSW
Cosmos 1110 Rocket 4.2 17:41:53 10° SSW 17:47:08 74° WNW 17:52:22 10° NNE
GENESIS II 4.4 17:43:08 10° SW 17:47:10 76° NW 17:51:13 10° NNE
YAOGAN 1 3.0 17:44:10 10° SE 17:48:08 37° ENE 17:52:09 10° N
Milstar 3 4.4 17:43:51 10° SW 17:48:53 21° S 17:53:50 10° SE
Cosmos 1689 Rocket 1.8 17:46:40 10° NNE 17:49:33 76° E 17:52:25 10° S
Cosmos 1302 Rocket 4.1 17:44:41 10° S 17:49:48 56° ESE 17:54:58 10° NNE
Meteor 2-10 Rocket 4.3 17:45:52 10° SSE 17:50:26 29° E 17:54:52 10° NNE
USA 306 4.4 17:49:32 10° NW 17:53:04 24° NNE 17:55:01 18° NE
ARGOS 4.1 17:50:29 16° ESE 17:53:31 26° ENE 17:57:57 10° N
Cosmos 1553 Rocket 4.2 17:47:37 10° SSE 17:53:44 50° E 17:59:46 10° NNE
Meteor 2-8 Rocket 4.4 17:50:31 10° S 17:56:31 63° E 18:02:34 10° NNE
Cosmos 2227 Rocket 2.5 17:53:59 10° NNW 17:59:24 44° ENE 18:03:35 16° SE
SL-4 R/B 3.4 17:57:04 10° WNW 18:00:03 24° N 18:01:41 18° NE
Cosmos 1726 Rocket 3.8 17:56:28 10° SSW 18:00:47 70° W 18:05:09 10° N
Cosmos 1656 3.8 17:55:54 10° S 18:01:12 49° ESE 18:06:37 10° NE
Cosmos 1892 3.1 17:59:15 10° N 18:02:56 40° ENE 18:05:38 16° SE
Cosmos 1346 Rocket 3.5 18:02:27 10° N 18:06:03 31° ENE 18:06:07 31° ENE
Okean-O 2.5 18:03:13 10° SSE 18:07:38 78° ENE 18:12:05 10° N
BREEZE-M R/B 4.1 18:03:56 10° WNW 18:07:46 46° N 18:11:38 23° ENE
Cosmos 2263 Rocket 4.2 18:06:00 10° NNE 18:07:55 12° NE 18:07:58 12° NE
CSL-04 Rocket 4.0 18:02:41 10° SE 18:07:56 46° ENE 18:13:11 10° N
CZ-2D R/B 3.2 18:04:28 10° S 18:08:16 83° WSW 18:12:06 10° NNW
MOS 1 Rocket 3.7 18:05:42 10° NNE 18:10:06 41° E 18:14:45 10° SSE
Aureole 3 Rocket 2.9 18:06:55 10° S 18:10:34 89° ESE 18:15:34 10° N
Cosmos 1300 3.9 18:10:08 10° SSW 18:13:46 44° WNW 18:17:26 10° N
SJ-11-01 4.4 18:11:33 15° SE 18:15:09 48° ENE 18:19:40 10° N
GEOS 3 Rocket 3.7 18:12:43 24° ESE 18:15:52 59° NE 18:21:11 10° NNW
Cosmos 1697 Rocket 3.2 18:12:15 10° S 18:17:17 36° ESE 18:18:40 31° ENE
Cosmos 44 3.7 18:15:49 10° SW 18:20:14 56° NW 18:24:23 13° NNE
SL-08 R/B 4.3 18:14:17 10° N 18:20:29 80° E 18:26:36 10° S
Cosmos 1745 Rocket 4.0 18:14:20 10° N 18:20:32 59° ENE 18:26:46 10° SSE
CZ-4C R/B 4.4 18:17:52 10° NNW 18:22:02 17° NNE 18:24:34 14° NE
Lacrosse 5 3.8 18:21:07 10° NW 18:24:37 18° N 18:26:52 14° NNE
Cosmos 1408 3.8 18:23:47 10° N 18:25:49 29° NNE 18:25:49 29° NNE
H-2A R/B 2.1 18:22:11 10° SSE 18:27:30 65° ENE 18:32:55 10° N
Cosmos 1825 4.4 18:26:09 10° N 18:26:45 14° NNE 18:26:45 14° NNE
Meteor 2-15 4.3 18:25:07 10° S 18:31:14 76° E 18:37:24 10° NNE
Cosmos 1992 Rocket 4.0 18:26:22 10° S 18:31:23 52° ESE 18:32:52 39° ENE
USA 307 3.9 18:31:39 10° NW 18:35:30 32° NNE 18:35:30 32° NNE
Cosmos 1386 Rocket 4.4 18:32:03 10° N 18:38:29 76° E 18:44:49 10° SSE
FALCON 9 DEB 3.9 18:35:48 10° WSW 18:38:42 45° NW 18:38:42 45° NW
Cosmos 1980 Rocket 4.2 18:34:21 10° SSE 18:34:49 12° SSE 18:34:49 12° SSE
Cosmos 2297 Rocket 2.3 18:34:02 10° NNW 18:39:44 77° WSW 18:44:22 16° SSE
Ariane Rocket 4.3 18:41:47 25° NNE 18:41:47 25° NNE 18:44:24 10° N
Helios 1A Rocket 4.4 18:36:05 10° SSW 18:39:57 38° W 18:43:49 10° NNW
USA 308 3.9 18:36:27 10° NW 18:40:06 33° NNE 18:40:06 33° NNE
Cosmos 1340 3.9 18:40:05 10° NNW 18:43:39 41° W 18:47:12 10° SSW
Cosmos 2058 Rocket 4.5 18:40:24 10° SW 18:44:36 39° WNW 18:48:51 10° N
Geosat 4.1 18:40:17 13° NNE 18:44:48 73° WNW 18:49:48 10° SW
FALCON 9 DEB 4.3 18:42:22 10° W 18:44:54 36° NW 18:44:54 36° NW
BREEZE-M R/B 4.1 18:40:16 10° WNW 18:45:14 37° NNW 18:45:14 37° NNW
CSL-04 Debris 4.2 18:40:23 10° SSE 18:45:48 84° WSW 18:51:19 10° NNW
Cosmos 220 Rocket 4.2 18:44:40 10° SSW 18:48:14 59° S 18:48:14 59° S
Cosmos 1709 Rocket 4.0 18:44:19 10° N 18:50:36 57° ENE 18:51:44 50° ESE
Cosmos 2058 3.4 18:57:43 10° NNW 19:01:45 56° W 19:01:47 56° W
CZ-4 R/B 3.5 18:59:20 10° SSW 19:02:38 26° W 19:05:56 10° NW
Cosmos 883 Rocket 4.3 18:59:41 10° S 19:05:51 79° E 19:12:00 10° N
Cosmos 2219 4.2 19:01:16 10° NW 19:06:43 44° WSW 19:11:45 12° S
S3M 4.3 19:02:11 10° SSW 19:08:14 63° W 19:14:20 10° N
BREEZE-M TANK 3.0 19:03:21 10° WNW 19:07:55 59° W 19:07:55 59° W
NOSS 3-4 (A) 4.4 19:04:12 10° NNW 19:10:30 40° NE 19:10:30 40° NE
NOSS 3-4 (C) 4.4 19:04:19 10° NNW 19:10:36 40° NE 19:10:36 40° NE
SeaSat 1 2.5 19:11:59 75° W 19:11:59 75° W 19:16:48 10° NNW
Cosmos 2082 3.6 19:11:16 10° NNW 19:16:56 84° W 19:16:56 84° W
NOSS 3-3 (A) 3.8 19:13:03 10° SW 19:18:50 84° NW 19:19:19 76° N
NOSS 3-3 (C) 3.8 19:13:08 10° SW 19:18:58 84° NW 19:19:26 77° N
USA 215 3.4 19:20:27 54° NNE 19:20:32 54° NNE 19:26:52 10° NW
Cosmos 2369 4.0 19:21:25 10° SSW 19:26:15 63° SW 19:26:15 63° SW
Atlas Centaur 2 4.0 19:20:38 10° SW 19:27:34 30° S 19:27:34 30° S
ATLAS 2AS CENTAUR R/B 3.5 19:25:49 10° NNW 19:31:55 41° NNE 19:31:55 41° NNE
ARGOS 4.0 19:32:00 37° SW 19:33:30 47° W 19:38:44 10° NNW
Cosmos 2227 Rocket 3.9 19:38:26 10° NW 19:43:13 29° WSW 19:45:29 22° SW
Cosmos 2263 Rocket 4.0 19:47:35 10° NNW 19:49:40 22° N 19:49:40 22° N
Cosmos 1697 Rocket 4.1 19:56:04 10° WSW 20:00:29 35° WNW 20:00:29 35° WNW
Lacrosse 5 4.4 20:04:57 10° NW 20:06:03 15° NNW 20:06:03 15° NNW
CZ-4C R/B 4.1 20:05:55 10° NNW 20:09:44 30° N 20:09:44 30° N
